GFSFLT2_prec_cloud_021.txt.gz
Cloud_Cover
100 100 100 100 100 100 100 100 100 100 100 99 5 0 0 0 0 0 0 0 0 0 0 0 0 0 0 0 0 0 0 0
100 100 100 100 100 100 100 100 100 100 66 8 0 0 0 0 0 0 0 0 0 0 0 0 0 0 0 0 0 0 0 0
100 100 100 100 100 100 100 100 100 100 97 0 0 0 0 0 0 0 0 0 0 0 0 0 0 0 0 0 0 0 0 0
100 100 100 100 100 100 100 100 99 16 0 0 0 0 0 0 0 0 0 0 0 0 0 0 0 0 0 0 0 0 0 0
100 100 100 100 100 100 99 43 62 0 0 0 0 0 0 0 0 0 0 0 0 0 0 0 0 0 0 0 0 0 0 0
100 100 100 100 100 100 82 26 4 0 0 0 0 0 0 0 0 0 0 0 0 0 0 0 0 0 0 0 0 0 0 0
100 100 100 100 100 100 100 100 96 32 5 0 0 0 0 0 0 0 0 0 0 0 0 0 0 0 0 0 0 0 0 0
100 100 100 100 100 100 100 100 100 28 0 0 0 0 2 0 0 0 0 0 0 0 0 0 0 0 0 0 0 0 0 0
100 100 100 100 100 100 100 100 22 0 0 0 0 4 5 0 5 5 5 0 0 0 0 0 0 0 0 0 0 0 0 0
100 92 57 54 68 71 6 5 5 0 4 5 8 1 0 5 4 2 1 0 1 0 0 0 0 0 0 2 5 2 0 1
0 0 72 57 57 0 19 5 3 5 7 15 100 30 5 5 5 15 13 5 5 5 0 0 0 4 5 5 5 5 5 5
0 0 0 0 1 7 6 5 40 100 13 5 5 21 5 5 22 79 21 14 4 0 0 0 0 0 0 2 5 5 5 5
0 0 3 5 5 41 7 5 47 6 48 5 33 22 50 5 4 0 0 0 0 0 5 0 5 4 0 0 5 5 5 5
2 36 68 7 14 13 5 5 5 5 83 81 50 9 41 5 0 0 0 0 0 4 5 5 5 5 2 0 3 5 5 5
83 46 95 68 5 5 4 2 5 5 63 98 98 88 41 3 4 4 4 5 5 1 0 0 5 7 34 9 55 58 45 99
0 3 5 5 5 2 1 1 5 5 7 31 90 37 6 5 5 0 0 0 4 2 4 3 43 69 93 99 98 100 100 27
5 5 5 0 5 5 46 99 95 100 100 67 43 45 88 64 41 96 96 100 100 100 99 100 100 100 100 100 100 67 50 51
1 0 0 0 2 0 5 68 89 100 100 100 100 100 100 89 97 44 14 5 5 5 5 18 7 98 100 99 95 97 94 100
5 5 92 88 82 61 12 5 5 6 5 35 100 78 13 7 31 5 5 4 1 2 5 62 94 100 95 14 20 37 100 100
5 43 100 100 100 60 97 97 93 68 83 89 31 5 5 5 5 1 17 100 79 93 86 35 5 5 5 64 79 99 100 100

GFSFLT2_prec_cloud_024.txt.gz
Cloud_Cover
67 100 100 100 100 100 100 100 100 100 100 100 100 100 100 100 5 2 0 0 0 0 0 0 0 0 0 0 0 0 0 0
100 100 100 100 100 100 100 100 100 100 100 100 100 100 100 79 1 0 0 0 0 0 0 0 0 0 0 0 0 0 0 0
100 100 100 100 100 100 100 100 100 100 100 100 100 100 62 5 2 0 0 0 0 0 0 0 0 0 0 0 0 0 0 0
100 100 100 100 100 100 100 100 100 100 95 82 99 25 5 0 4 0 0 0 0 0 0 0 0 0 0 0 0 0 0 0
100 100 100 100 100 100 100 100 100 100 100 100 95 82 5 6 5 0 0 0 0 0 0 0 0 0 0 0 0 0 0 0
100 100 100 100 100 100 100 100 100 100 100 100 100 100 81 63 3 0 0 0 0 0 0 0 0 0 0 0 0 0 0 0
100 100 100 100 100 100 100 100 100 100 100 100 100 100 60 5 0 0 0 0 0 0 0 0 0 0 0 0 0 0 0 0
100 100 100 100 100 100 82 100 100 100 100 100 96 91 2 0 0 0 0 0 0 0 0 0 0 0 0 0 1 0 0 0
100 100 100 94 71 99 100 100 100 100 100 8 25 0 0 0 0 0 5 0 0 0 0 0 0 0 0 0 0 5 4 0
100 95 32 2 4 0 8 58 32 98 47 2 3 5 1 0 0 0 5 5 5 5 5 0 0 0 3 5 5 5 5 5
17 11 10 4 0 5 3 2 9 5 5 5 15 86 70 34 5 27 35 6 5 3 0 0 0 3 3 4 5 5 5 21
5 5 24 7 5 2 0 5 5 5 5 5 5 51 41 63 29 89 19 5 0 0 0 0 1 5 5 5 5 5 45 43
5 99 68 74 90 5 5 12 8 32 9 5 5 57 93 81 79 43 5 4 0 4 1 0 0 3 5 5 6 78 94 100
1 2 44 70 30 100 100 100 84 12 5 5 86 99 100 67 5 20 5 1 3 2 0 0 3 4 2 2 8 32 27 8
2 5 5 92 71 44 70 73 22 94 71 47 79 53 10 4 2 5 2 0 1 0 0 0 11 22 47 37 18 9 15 85
5 67 20 5 5 5 5 14 73 85 98 11 11 5 5 3 0 2 4 4 5 2 28 12 21 12 6 19 76 96 81 13
0 0 0 0 0 5 75 100 100 100 98 100 100 100 100 100 96 93 52 7 5 1 2 0 19 8 27 67 12 9 30 63
0 0 0 0 2 36 95 88 75 91 86 61 40 13 12 5 4 0 0 2 5 5 5 33 11 5 5 18 67 99 100 100
5 3 4 28 15 7 5 5 18 30 41 5 5 5 5 5 5 5 1 1 6 78 6 5 5 5 5 13 14 97 100 100
4 24 97 84 37 66 14 5 5 6 10 22 5 5 1 0 3 0 0 0 0 0 0 3 5 5 5 60 70 84 100 100

GFSFLT2_prec_cloud_027.txt.gz
Cloud_Cover
100 91 100 85 100 100 96 99 98 23 98 72 96 100 96 91 6 13 95 69 48 0 0 0 0 0 0 0 0 0 0 0
100 100 100 100 95 100 100 100 100 100 100 100 100 100 36 53 100 19 100 49 5 3 1 0 0 0 0 0 0 0 0 0
100 100 100 100 100 99 100 100 100 100 100 100 100 100 100 100 99 92 20 4 3 5 0 0 0 0 0 0 0 0 0 0
100 100 100 100 100 100 100 100 100 100 100 100 84 94 63 24 67 100 23 5 5 1 0 0 0 0 0 0 0 0 0 0
100 100 100 100 100 100 100 100 100 100 100 100 100 100 56 10 8 5 4 5 4 0 0 0 0 0 0 0 0 0 0 0
100 100 100 100 100 100 100 100 100 100 100 100 100 97 29 7 5 5 11 37 0 0 0 0 0 0 0 0 0 0 0 0
100 100 100 100 100 100 100 100 100 100 100 100 100 100 100 99 97 7 26 1 0 0 0 0 0 0 0 0 0 0 0 0
100 100 100 100 100 100 100 100 100 100 100 100 100 100 100 100 93 8 0 0 0 0 2 0 0 0 0 0 0 0 0 0
100 100 100 100 100 81 5 13 11 10 11 1 5 28 23 87 24 5 3 2 0 5 5 0 0 0 0 0 0 0 0 0
100 86 64 95 98 7 5 4 1 1 4 5 5 4 5 31 5 1 0 5 0 3 5 0 0 0 0 0 0 1 3 1
100 100 100 100 100 100 21 5 5 5 5 5 5 5 5 5 5 5 8 17 6 5 4 0 0 0 3 4 1 0 0 0
78 100 100 100 100 100 87 35 6 5 5 5 5 5 5 60 96 100 80 38 15 0 0 0 0 3 3 5 5 5 5 5
61 98 27 52 92 98 69 5 5 5 5 60 72 98 98 98 79 57 56 27 4 0 0 0 0 0 0 0 1 5 5 23
9 98 100 98 74 6 5 5 11 58 22 13 76 49 9 4 4 5 5 2 0 0 0 0 0 5 10 7 5 7 6 5
17 14 4 1 2 5 49 34 40 12 5 5 5 5 5 0 0 0 0 0 0 0 1 0 11 0 0 12 22 5 11 10
5 5 5 4 5 85 99 18 9 5 5 5 5 5 5 3 0 0 0 0 0 0 0 0 4 6 5 5 5 9 66 59
8 5 3 5 12 89 100 100 100 100 88 91 100 100 98 32 14 9 5 0 0 0 0 5 5 4 5 6 19 75 52 93
27 21 8 20 91 100 100 100 100 100 100 100 100 100 97 47 4 0 0 0 0 0 0 0 0 0 3 10 60 98 100 100
100 46 30 100 100 94 72 35 33 98 100 100 42 2 2 0 1 0 0 0 0 0 0 0 0 0 0 5 23 30 61 91
5 8 92 71 11 69 94 88 83 57 9 5 5 5 0 0 1 5 5 5 5 36 4 0 0 0 0 0 20 12 5 68

GFSFLT2_prec_cloud_030.txt.gz
Cloud_Cover
99 100 100 99 100 100 99 100 100 99 72 100 100 98 94 99 99 7 94 27 92 80 2 3 0 0 0 0 0 0 0 0
100 99 83 100 100 100 100 100 100 100 100 100 100 100 100 100 88 92 98 94 96 9 5 5 0 0 0 0 0 0 0 0
100 100 100 98 100 81 100 100 100 94 100 100 100 100 100 100 83 35 72 18 86 8 4 0 0 0 0 0 0 0 0 0
100 100 99 100 100 100 100 100 100 100 100 100 100 89 100 73 78 34 6 5 5 8 2 4 2 0 0 0 0 0 0 0
100 51 100 100 100 100 100 100 100 100 100 100 100 100 98 99 100 100 8 0 5 2 5 5 0 0 0 0 0 0 0 0
97 100 100 100 100 100 100 100 100 100 100 100 100 100 99 94 30 5 5 11 23 5 4 0 0 0 0 0 0 0 0 0
100 100 100 100 100 100 100 100 100 100 100 100 100 100 68 6 3 2 0 1 11 46 5 2 0 3 0 0 0 0 0 0
100 100 100 100 100 100 100 100 100 100 99 84 36 1 5 5 1 0 1 5 4 2 0 3 0 0 0 0 0 0 0 0
100 100 100 100 100 100 100 100 29 10 5 27 6 5 4 0 5 3 5 5 0 2 5 5 0 2 3 0 0 0 0 0
100 100 100 100 100 100 100 100 100 78 100 99 95 21 0 0 3 5 5 5 5 5 5 5 5 4 0 0 2 1 0 0
100 100 100 100 100 100 100 100 100 100 96 100 100 14 8 32 76 35 5 5 5 5 5 5 2 0 0 0 1 0 1 2
78 88 100 100 100 100 100 100 100 100 58 71 56 40 100 100 29 6 5 5 5 5 4 5 1 0 0 1 5 5 5 5
99 100 100 100 100 100 100 93 86 5 5 5 7 75 30 5 4 0 0 0 0 0 0 0 0 0 0 2 1 5 5 49
100 75 59 95 87 18 4 5 5 5 4 2 1 0 0 0 0 0 0 0 0 0 0 0 0 6 19 9 54 82 44 6
69 97 100 35 5 5 5 0 0 1 2 2 0 0 0 1 0 0 0 0 0 0 0 0 0 0 0 7 9 9 71 5
100 71 5 28 4 1 4 5 5 5 5 5 2 3 5 3 4 4 0 0 0 0 0 0 0 0 0 0 2 64 100 58
56 57 65 55 98 18 7 5 5 5 0 5 5 6 5 10 7 5 2 5 5 0 1 0 0 0 2 8 21 5 5 6
100 100 96 69 88 68 95 83 5 5 38 78 76 83 97 25 5 5 5 3 1 4 2 4 2 0 1 9 52 100 100 100
96 100 100 97 39 5 5 5 15 65 74 66 42 35 37 5 5 5 5 5 5 5 14 5 5 5 5 17 7 45 72 47
32 56 38 5 5 5 46 63 5 5 5 5 5 5 5 5 5 4 5 5 10 15 8 70 86 5 39 56 5 13 6 9

GFSFLT2_prec_cloud_033.txt.gz
Cloud_Cover
89 100 100 100 99 83 95 93 98 98 99 85 100 97 41 13 99 12 16 6 5 8 5 8 5 4 4 0 0 0 0 0
100 98 100 100 98 99 100 100 100 100 100 100 100 85 96 84 100 30 16 9 5 5 5 5 5 0 5 0 0 0 0 0
100 99 100 100 100 100 100 100 100 100 100 100 99 100 100 100 88 83 13 86 6 33 5 5 4 0 5 4 0 0 0 0
100 100 100 100 100 100 100 100 100 100 100 100 100 100 100 100 100 100 83 41 5 5 3 0 0 0 3 4 0 0 0 0
100 100 100 100 100 98 100 100 100 100 100 100 100 100 100 100 100 100 100 16 5 4 0 0 0 0 0 0 0 0 0 0
100 100 100 100 100 100 100 100 100 100 100 100 99 100 96 100 100 100 64 6 0 0 0 0 0 0 0 0 0 0 0 0
99 94 100 100 100 100 100 100 100 100 100 100 100 100 100 100 97 67 49 5 4 5 0 0 0 0 0 0 0 0 0 0
100 100 100 100 100 100 100 100 100 100 100 100 100 97 93 10 9 5 9 5 0 3 2 0 0 1 0 0 0 0 0 0
91 100 100 100 100 100 100 100 100 99 100 100 100 67 72 97 89 55 6 5 5 5 2 5 5 5 0 0 0 5 0 0
98 100 100 100 100 100 100 100 100 100 100 100 74 100 97 88 70 5 5 5 5 3 5 4 3 6 4 4 0 1 5 5
87 100 100 100 100 100 100 100 100 100 100 100 100 100 100 52 5 5 5 5 5 4 5 5 26 76 29 5 5 5 5 3
100 90 100 100 100 100 100 100 100 100 100 100 100 80 37 16 3 5 5 2 0 0 0 0 0 0 3 1 0 0 4 5
59 100 94 100 100 100 100 100 100 100 100 80 36 9 0 0 0 0 0 0 0 0 0 1 2 0 0 0 0 0 0 1
100 99 80 100 97 44 61 62 36 5 0 0 0 0 0 0 0 0 0 0 0 0 0 0 0 0 0 0 0 0 5 1
13 9 6 5 5 5 5 5 5 66 56 6 5 0 0 1 0 3 11 37 33 5 5 2 0 0 0 1 0 0 5 3
5 9 5 31 69 67 5 42 56 8 11 4 2 5 5 23 79 96 66 7 5 0 0 0 0 0 0 5 3 5 40 5
34 74 38 23 92 63 91 96 5 2 0 3 5 8 87 84 5 2 0 0 0 0 2 5 5 13 75 5 5 5 72 99
80 70 97 82 11 34 15 5 4 5 4 3 5 9 1 1 0 0 0 2 4 12 73 86 89 25 70 54 5 5 5 83
5 25 32 58 64 7 7 5 5 5 3 0 2 1 0 3 5 12 5 5 6 47 5 98 98 5 6 24 6 51 5 28
5 5 6 10 97 78 5 48 67 5 0 0 2 5 5 5 5 5 5 6 6 87 28 10 72 22 17 24 96 97 5 5

GFSFLT2_prec_cloud_036.txt.gz
Cloud_Cover
100 100 100 100 100 100 100 100 100 100 100 95 100 100 100 100 100 100 92 49 100 98 68 86 28 9 88 5 5 1 0 0
100 100 100 98 100 100 100 100 100 100 100 100 100 100 100 100 100 100 100 100 100 100 100 100 42 52 5 5 2 0 0 0
100 100 100 99 97 100 100 100 100 100 100 100 100 100 100 100 100 100 34 100 90 100 100 27 18 5 0 0 0 0 0 0
100 100 100 100 100 100 100 100 100 100 100 100 100 100 100 98 100 98 96 100 100 100 100 90 3 1 0 0 0 0 0 0
100 100 100 100 100 100 100 100 100 100 100 100 100 100 100 100 97 97 89 100 100 100 100 53 5 0 0 0 0 0 0 0
100 100 100 100 100 100 100 100 100 100 100 100 100 100 100 100 56 19 5 21 23 5 7 5 3 0 0 0 0 0 0 0
100 100 100 100 100 100 100 100 100 100 100 100 100 100 91 94 99 99 13 32 5 4 4 4 0 0 0 0 0 0 0 0
100 100 100 100 100 100 70 89 100 100 100 100 100 100 37 95 97 95 73 86 82 5 5 5 3 0 0 0 0 0 0 0
100 100 100 100 100 98 100 100 100 100 100 100 100 100 100 100 100 100 100 100 100 100 25 5 5 0 0 0 5 5 5 0
100 100 100 100 100 100 100 100 100 100 100 100 100 100 100 100 100 100 100 100 91 5 5 5 0 0 0 4 5 5 3 5
100 100 100 100 100 100 100 100 100 100 100 100 100 100 100 100 100 100 100 100 100 3 0 0 0 3 5 5 4 5 3 0
87 81 100 100 100 100 100 100 100 100 100 100 100 100 100 100 100 100 72 7 0 0 0 0 0 0 2 1 2 0 2 3
68 94 100 100 100 100 100 100 100 100 100 100 100 100 100 100 100 5 0 0 0 0 0 1 4 1 0 0 1 2 5 28
59 50 100 100 100 100 82 100 90 100 100 100 91 56 75 42 2 0 0 0 3 5 5 5 4 3 5 0 0 0 0 93
29 93 29 58 48 97 100 26 84 92 94 93 76 14 1 3 0 0 5 6 36 5 5 1 3 0 14 13 5 2 4 7
42 5 37 99 68 12 5 5 5 5 5 5 4 5 1 0 0 5 5 5 5 2 3 5 5 5 26 90 97 79 96 78
5 63 26 6 72 42 38 5 5 5 5 6 19 10 4 0 0 0 2 5 5 0 3 16 42 58 78 100 100 100 100 100
10 8 5 14 5 5 5 11 6 5 11 98 85 32 5 5 5 3 2 5 5 12 47 24 58 82 96 93 100 100 100 100
5 5 5 5 5 5 10 31 9 73 99 93 21 5 5 5 5 5 5 5 40 6 86 60 48 61 75 86 100 100 100 100
5 0 5 5 7 37 98 97 77 79 25 5 5 5 5 5 5 5 5 5 5 5 34 44 86 32 90 87 94 100 100 100

GFSFLT2_prec_cloud_042.txt.gz
Cloud_Cover
100 100 100 100 100 100 100 100 100 100 100 100 100 100 100 100 100 100 69 55 100 86 55 100 100 100 100 100 82 6 12 7
100 100 100 100 100 100 100 100 100 100 100 100 100 100 100 100 100 100 100 100 77 100 100 100 100 100 98 98 5 5 94 100
100 100 100 100 100 100 100 100 100 100 100 100 100 100 100 100 100 100 47 80 100 100 100 98 100 92 98 5 5 4 4 5
100 100 100 100 100 100 100 100 100 100 100 100 100 100 100 100 100 100 100 100 100 100 96 81 12 6 5 5 5 0 0 0
100 100 100 100 100 100 100 100 100 100 100 100 100 100 100 100 100 100 100 100 78 96 88 48 80 5 5 4 5 95 48 100
100 100 100 100 100 100 100 100 100 100 100 100 100 100 100 100 100 100 100 100 100 33 17 5 5 4 5 77 50 100 90 2
100 100 100 100 100 100 100 100 100 100 100 100 100 100 100 100 100 100 100 72 49 63 25 61 99 82 96 100 29 12 42 37
100 100 100 100 100 100 100 100 100 100 100 100 100 100 100 100 100 100 97 89 100 100 97 34 93 100 100 100 100 94 100 30
87 100 100 100 100 100 100 100 100 100 100 100 100 100 100 100 100 100 100 100 99 100 97 100 100 100 100 100 100 100 91 4
100 100 100 100 100 100 100 100 100 100 100 100 100 100 99 100 100 98 80 100 100 100 100 94 100 56 3 5 5 0 0 0
100 100 100 100 100 100 100 100 100 100 96 100 100 100 97 100 100 100 100 100 100 100 100 100 100 27 88 80 0 0 0 0
63 85 97 86 95 87 79 89 99 88 81 100 100 100 100 100 100 100 100 100 100 100 100 100 54 10 0 0 0 0 0 0
100 100 100 100 100 30 5 5 5 5 100 82 93 100 100 100 100 100 100 80 32 0 0 0 0 0 0 0 5 5 2 0
91 86 82 7 5 16 5 5 3 2 5 7 89 100 100 100 49 6 5 5 3 0 0 0 0 1 0 5 5 4 2 3
16 27 32 14 57 5 4 1 3 2 5 5 5 27 6 5 5 5 5 5 4 0 0 3 4 3 0 4 5 5 4 0
10 66 5 14 6 4 3 5 5 5 5 28 5 5 5 5 5 5 5 3 0 0 0 0 0 4 3 5 5 6 5 5
46 4 39 5 5 0 4 42 100 100 98 60 98 98 76 6 5 5 5 5 5 5 5 5 5 5 5 5 10 84 8 54
20 0 100 12 2 3 0 5 68 50 15 33 100 99 27 10 5 5 3 2 0 0 0 0 1 1 5 5 51 99 99 89
100 64 100 7 5 2 0 2 8 7 54 64 93 32 5 26 5 3 4 5 5 0 0 0 5 5 5 8 100 100 98 94
2 3 38 2 5 30 33 5 5 68 100 100 100 53 5 5 5 5 5 5 5 0 0 0 1 42 78 42 88 100 99 100

GFSFLT2_prec_cloud_045.txt.gz
Cloud_Cover
100 100 100 100 100 100 99 99 100 100 100 100 100 100 100 100 100 100 100 100 98 99 37 66 82 100 92 100 100 78 100 9
100 100 100 100 100 100 100 100 100 100 100 100 100 100 100 100 100 100 100 100 100 100 100 100 100 100 100 100 100 100 77 5
100 100 100 100 100 100 100 100 100 100 100 100 100 100 100 100 100 100 100 73 90 100 100 100 100 100 100 100 100 84 28 90
100 100 100 100 100 100 100 100 100 100 100 100 100 100 100 100 100 100 100 100 100 100 100 100 99 98 100 55 98 30 6 5
100 100 100 100 100 100 100 100 100 100 100 100 100 100 100 100 100 100 100 100 100 100 100 60 80 97 100 56 12 5 0 0
100 100 100 100 100 100 100 100 100 100 100 100 100 100 100 100 100 100 100 100 100 100 100 100 100 96 17 21 60 52 56 47
100 100 100 100 100 100 100 100 100 100 100 100 100 100 100 100 100 100 100 100 100 100 100 81 92 100 51 96 85 66 45 78
100 100 100 100 100 100 100 100 100 100 100 100 100 100 100 100 100 100 100 100 37 100 100 100 100 100 100 97 100 100 100 100
100 100 100 100 100 100 100 100 100 100 100 100 100 100 100 100 100 100 100 100 100 100 100 100 100 100 100 100 100 100 6 2
85 100 100 100 100 100 100 100 100 100 100 100 100 100 100 100 100 100 100 97 62 57 100 100 100 100 100 100 90 57 2 0
100 100 100 100 91 100 100 100 85 100 100 100 100 100 100 100 97 89 56 68 90 92 30 96 99 100 96 29 0 0 0 0
100 94 95 76 76 82 88 75 97 75 53 48 14 17 8 73 23 5 4 3 12 93 100 90 1 0 0 0 0 0 0 0
77 63 100 100 100 100 100 100 100 100 100 74 5 5 5 2 4 3 0 0 0 2 2 0 0 0 0 0 0 0 0 0
100 100 100 100 100 99 7 5 5 5 5 4 2 5 5 5 0 1 2 2 5 5 0 0 0 0 0 0 0 0 0 1
100 100 100 82 53 5 5 6 2 0 0 1 3 5 2 1 5 46 10 5 5 1 0 0 0 0 0 0 3 4 5 5
24 88 51 17 5 3 5 0 0 0 0 0 0 1 5 5 5 4 3 2 0 0 0 0 0 1 4 5 5 5 17 28
5 5 5 1 28 2 5 0 0 0 0 0 5 4 38 52 5 2 0 2 0 4 3 0 0 1 4 4 2 4 5 6
1 0 0 0 0 5 1 0 0 0 11 91 100 100 72 5 9 19 5 1 3 0 2 4 5 5 3 4 5 59 82 84
1 0 0 0 18 5 5 0 6 60 65 100 100 73 41 98 100 82 30 5 4 5 5 5 5 3 5 5 99 100 100 94
0 0 1 95 46 15 5 0 3 6 23 99 100 99 94 96 100 100 100 5 5 5 5 5 13 29 21 6 86 63 100 100

GFSFLT2_prec_cloud_048.txt.gz
Cloud_Cover
100 100 100 100 100 100 100 100 100 100 100 100 100 100 100 100 99 100 100 100 98 100 79 99 86 100 58 67 100 100 100 100
100 100 100 100 100 100 100 100 100 100 100 100 100 100 100 100 100 100 100 100 97 100 100 100 100 100 100 100 100 90 37 51
100 100 100 100 100 100 100 100 100 100 100 100 100 100 100 100 100 100 100 100 100 100 100 100 100 100 100 100 68 85 100 82
100 100 100 100 100 100 100 100 100 100 100 100 100 100 100 100 100 100 97 100 100 100 100 100 100 100 100 100 100 91 41 98
100 100 100 100 100 100 100 100 100 100 100 100 100 100 100 100 100 100 100 100 100 100 100 100 100 100 89 100 100 86 8 12
100 100 100 100 100 100 100 100 100 100 100 100 100 100 100 100 100 100 100 100 100 100 100 100 100 100 95 100 98 97 100 100
100 100 100 100 100 100 100 100 100 100 100 100 100 100 100 100 100 100 100 100 100 100 100 100 100 92 80 78 35 64 18 67
100 100 100 100 100 100 100 100 100 100 100 100 100 100 100 100 100 100 100 100 100 100 100 100 100 94 99 64 25 6 5 4
100 100 100 100 100 100 100 100 100 100 100 100 100 100 100 100 100 100 100 100 99 69 63 9 56 25 22 5 2 0 0 0
100 100 100 100 100 100 100 100 100 100 100 100 100 100 100 100 100 97 100 96 26 5 38 7 5 5 1 0 0 0 0 0
100 100 100 100 100 100 100 100 100 100 100 100 100 100 100 100 100 100 59 93 100 87 25 4 0 0 0 0 0 0 0 0
100 100 100 100 100 100 100 100 100 100 100 96 97 96 94 98 100 100 83 94 80 15 0 0 0 0 0 0 0 0 0 0
94 98 69 100 100 100 53 43 22 57 96 100 100 100 89 19 18 16 5 2 2 5 0 0 0 0 0 0 0 0 0 0
100 70 98 100 91 94 85 100 100 100 95 86 24 69 5 17 1 0 0 4 5 0 0 0 0 0 0 0 0 0 1 1
62 61 100 100 100 100 100 100 100 79 47 5 4 2 5 5 1 2 5 39 4 0 5 5 3 0 0 0 3 0 5 5
100 100 100 100 100 100 87 63 15 7 1 0 0 2 5 1 0 0 5 24 49 24 43 58 1 2 1 3 0 0 1 5
84 61 87 98 5 8 7 5 6 5 0 0 5 5 2 0 1 5 5 8 5 34 100 100 75 0 0 1 5 4 5 5
22 26 38 31 4 0 2 18 17 4 0 3 5 4 34 18 97 87 21 37 99 97 56 5 3 2 5 5 5 1 5 5
7 19 1 0 0 1 4 6 5 4 1 5 15 12 93 100 100 100 100 65 44 50 5 5 5 5 5 5 5 5 50 42
7 5 3 0 0 2 3 1 5 5 5 62 98 100 100 100 33 98 100 94 90 61 58 5 5 5 5 5 5 12 74 51